Tracking 19792 objects as of 15-Jul-2019
HD Live streaming from Space Station
objects crossing your sky now

FLOCK 3P 2

Track FLOCK 3P 2 now!
10-day predictions
FLOCK 3P 2 is classified as:


NORAD ID: 41966
Int'l Code: 2017-008U
Perigee: 490.1 km
Apogee: 503.1 km
Inclination: 97.4 °
Period: 94.4 minutes
Semi major axis: 6867 km
RCS: Unknown
Launch date: February 15, 2017
Source: United States (US)
Launch site: SRIHARIKOTA (SRI)
aabbcc
Your satellite tracking list
Your tracking list is empty




NASA's NSSDC Master Catalog

Two Line Element Set (TLE):
1 41966U 17008U   19196.41073139  .00001126  00000-0  47348-4 0  9996
2 41966  97.4054 263.1022 0009434  54.0843 306.1269 15.25440417133879
Source of the keplerian elements: AFSPC